CW9825 Weather Reports


time (UTC)temp
F
wind
direction
speed
knots
gust
knots
rain 1hr
in
rain 24hr
in
rain mn
in
humidity
%
barometer
mb
20260508153545 60 234 2.6 7.8 0.00 0.00 0.00 34 1004.2
20260508153046 59 321 1.7 9.6 0.00 0.00 0.00 36 1004.2
20260508152543 59 175 5.2 10.4 0.00 0.00 0.00 34 1004.2
20260508152041 58 193 2.6 7.0 0.00 0.00 0.00 40 1004.2
20260508151640 57 208 4.3 7.0 0.00 0.00 0.00 39 1004.3
20260508151038 57 202 2.6 7.0 0.00 0.00 0.00 40 1004.3
20260508150538 56 220 1.7 8.7 0.00 0.00 0.00 40 1004.3
20260508150040 56 226 4.3 8.7 0.00 0.00 0.00 40 1004.5
20260508145537 56 216 3.5 11.3 0.00 0.00 0.00 41 1004.5
20260508145038 56 206 5.2 11.3 0.00 0.00 0.00 40 1004.6
20260508144539 56 205 6.1 9.6 0.00 0.00 0.00 40 1004.6
20260508144036 57 193 7.0 9.6 0.00 0.00 0.00 39 1004.6
20260508143538 57 224 2.6 10.4 0.00 0.00 0.00 39 1004.6
20260508143034 56 211 5.2 10.4 0.00 0.00 0.00 39 1004.6
20260508142534 56 185 5.2 8.7 0.00 0.00 0.00 39 1004.5
20260508142034 55 216 2.6 7.8 0.00 0.00 0.00 41 1004.5
20260508141533 55 215 4.3 7.8 0.00 0.00 0.00 41 1004.6
20260508141028 54 205 2.6 7.8 0.00 0.00 0.00 41 1004.7
20260508140528 54 183 3.5 7.8 0.00 0.00 0.00 41 1004.8
20260508140025 53 215 3.5 7.8 0.00 0.00 0.00 41 1004.8
20260508135524 53 180 5.2 8.7 0.00 0.00 0.00 41 1004.8
20260508135022 52 209 4.3 7.8 0.00 0.00 0.00 43 1004.9
20260508134521 52 187 3.5 7.8 0.00 0.00 0.00 44 1005.1
20260508134019 52 214 3.5 7.0 0.00 0.00 0.00 44 1005.2
20260508133518 52 198 2.6 6.1 0.00 0.00 0.00 45 1005.2
20260508133024 51 195 1.7 6.1 0.00 0.00 0.00 49 1005.2
20260508132517 50 212 1.7 5.2 0.00 0.00 0.00 50 1005.3
20260508132014 49 179 1.7 5.2 0.00 0.00 0.00 51 1005.3
20260508131512 49 211 1.7 3.5 0.00 0.00 0.00 52 1005.4
20260508131010 48 208 1.7 4.3 0.00 0.00 0.00 53 1005.4
20260508130508 47 194 1.7 5.2 0.00 0.00 0.00 53 1005.3
20260508130011 46 192 2.6 4.3 0.00 0.00 0.00 54 1005.5
20260508125506 45 179 0.9 5.2 0.00 0.00 0.00 55 1005.4
20260508125004 45 208 1.7 5.2 0.00 0.00 0.00 55 1005.5
20260508124504 45 169 1.7 4.3 0.00 0.00 0.00 56 1005.5
20260508124003 44 161 1.7 4.3 0.00 0.00 0.00 56 1005.6
20260508123501 44 178 0.9 2.6 0.00 0.00 0.00 57 1005.6
20260508123002 43 178 0.9 4.3 0.00 0.00 0.00 58 1005.6
20260508122501 42 175 0.9 4.3 0.00 0.00 0.00 59 1005.6
20260508122059 42 178 0.9 5.2 0.00 0.00 0.00 59 1005.5
20260508121559 42 188 0.9 3.5 0.00 0.00 0.00 59 1005.6
20260508121057 41 190 1.7 3.5 0.00 0.00 0.00 59 1005.6
20260508120556 41 185 0.9 3.5 0.00 0.00 0.00 59 1005.6
20260508120058 41 182 0.9 3.5 0.00 0.00 0.00 60 1005.7
20260508115556 40 182 0.9 3.5 0.00 0.00 0.00 61 1005.8
20260508115057 40 182 0.9 3.5 0.00 0.00 0.00 61 1005.6
20260508114554 39 180 1.7 4.3 0.00 0.00 0.00 61 1005.7
20260508114052 39 187 0.9 4.3 0.00 0.00 0.00 61 1005.8
20260508113551 39 191 2.6 4.3 0.00 0.00 0.00 61 1005.8
20260508113051 39 187 1.7 5.2 0.00 0.00 0.00 61 1005.8
20260508112550 39 177 1.7 4.3 0.00 0.00 0.00 61 1005.8
20260508112050 39 165 1.7 5.2 0.00 0.00 0.00 62 1005.8
20260508111552 38 171 1.7 4.3 0.00 0.00 0.00 62 1005.8
20260508111048 38 171 0.9 2.6 0.00 0.00 0.00 62 1005.9
20260508110547 38 169 0.0 2.6 0.00 0.00 0.00 62 1005.9
20260508110047 38 169 0.0 1.7 0.00 0.00 0.00 62 1006.1
20260508105548 38 169 0.0 1.7 0.00 0.00 0.00 61 1006.0
20260508105046 38 169 0.0 2.6 0.00 0.00 0.00 61 1006.1
20260508104546 39 169 0.9 4.3 0.00 0.00 0.00 61 1006.0
20260508104045 39 171 2.6 4.3 0.00 0.00 0.00 60 1006.0
20260508103545 39 160 1.7 4.3 0.00 0.00 0.00 60 1006.1
20260508103044 39 185 1.7 3.5 0.00 0.00 0.00 61 1006.1
20260508102542 39 169 1.7 4.3 0.00 0.00 0.00 62 1006.1
20260508102045 39 162 1.7 2.6 0.00 0.00 0.00 61 1006.2
20260508101542 39 161 0.0 1.7 0.00 0.00 0.00 62 1006.2
20260508101041 39 161 0.9 2.6 0.00 0.00 0.00 63 1006.2
20260508100540 39 161 0.9 4.3 0.00 0.00 0.00 63 1006.2
20260508100051 39 159 1.7 4.3 0.00 0.00 0.00 63 1006.4
20260508095540 39 122 0.9 2.6 0.00 0.00 0.00 64 1006.4
20260508095036 39 98 0.9 2.6 0.00 0.00 0.00 65 1006.4
20260508094539 40 53 0.0 1.7 0.00 0.00 0.00 65 1006.5
20260508094035 40 53 0.9 2.6 0.00 0.00 0.00 65 1006.5
20260508093534 40 53 0.9 2.6 0.00 0.00 0.00 65 1006.6
20260508093034 40 351 0.0 0.0 0.00 0.00 0.00 65 1006.6
20260508092534 40 355 0.0 0.0 0.00 0.00 0.00 64 1006.6
20260508092032 40 355 0.0 0.0 0.00 0.00 0.00 63 1006.7
20260508091533 40 355 0.0 0.0 0.00 0.00 0.00 64 1006.6
20260508091034 40 355 0.0 0.0 0.00 0.00 0.00 66 1006.7
20260508090535 39 355 0.0 0.0 0.00 0.00 0.00 65 1006.8
20260508090048 39 355 0.0 0.0 0.00 0.00 0.00 66 1006.8
20260508085531 38 355 0.0 0.0 0.00 0.00 0.00 65 1006.8
20260508085031 38 355 0.0 0.0 0.00 0.00 0.00 65 1006.8
20260508084531 38 355 0.0 0.0 0.00 0.00 0.00 65 1006.8
20260508084030 38 355 0.0 0.0 0.00 0.00 0.00 65 1006.8
20260508083533 38 355 0.0 0.0 0.00 0.00 0.00 65 1006.8
20260508083030 38 355 0.0 0.0 0.00 0.00 0.00 65 1006.8
20260508082528 38 355 0.0 0.0 0.00 0.00 0.00 64 1006.8
20260508082028 38 355 0.0 0.0 0.00 0.00 0.00 63 1006.7
20260508081532 39 355 0.0 0.0 0.00 0.00 0.00 62 1006.8
20260508081027 39 355 0.0 0.9 0.00 0.00 0.00 62 1006.8
20260508080531 39 355 0.0 0.9 0.00 0.00 0.00 61 1007.0
20260508080025 39 355 0.0 0.9 0.00 0.00 0.00 60 1007.0
20260508075525 40 355 0.0 0.9 0.00 0.00 0.00 60 1007.0
20260508075025 40 355 0.0 1.7 0.00 0.00 0.00 60 1007.0
20260508074526 40 355 0.9 1.7 0.00 0.00 0.00 60 1007.0
20260508074023 40 355 0.0 1.7 0.00 0.00 0.00 59 1007.1
20260508073523 40 355 0.0 0.9 0.00 0.00 0.00 59 1007.0
20260508073025 40 355 0.0 1.7 0.00 0.00 0.00 59 1007.1
20260508072521 40 355 0.9 1.7 0.00 0.00 0.00 59 1007.1
20260508072021 40 355 0.9 1.7 0.00 0.00 0.00 60 1007.1
20260508071526 40 355 0.0 2.6 0.00 0.00 0.00 60 1007.2
20260508071022 40 355 0.9 2.6 0.00 0.00 0.00 60 1007.2
20260508070520 40 355 0.0 2.6 0.00 0.00 0.00 61 1007.3
20260508070020 40 355 0.0 1.7 0.00 0.00 0.00 61 1007.3
20260508065520 40 355 0.0 1.7 0.00 0.00 0.00 61 1007.3
20260508065023 40 355 0.9 1.7 0.00 0.00 0.00 61 1007.3
20260508064519 40 19 0.0 0.0 0.00 0.00 0.00 57 1007.3
20260508064017 39 19 0.0 0.0 0.00 0.00 0.00 57 1007.3
20260508063519 39 19 0.0 0.0 0.00 0.00 0.00 57 1007.2
20260508063016 39 19 0.0 0.0 0.00 0.00 0.00 56 1007.3
20260508062514 40 19 0.0 0.9 0.00 0.00 0.00 55 1007.2
20260508062014 40 21 0.0 0.9 0.00 0.00 0.00 55 1007.3
20260508061514 40 26 0.0 0.0 0.00 0.00 0.00 54 1007.2
20260508061014 40 26 0.0 0.0 0.00 0.00 0.00 54 1007.3
20260508060514 40 26 0.0 0.0 0.00 0.00 0.00 55 1007.3
20260508060013 40 26 0.0 0.0 0.00 0.00 0.00 55 1007.3
20260508055512 40 26 0.0 0.0 0.00 0.00 0.00 54 1007.3
20260508055013 40 26 0.0 0.0 0.00 0.00 0.00 54 1007.3
20260508054511 40 26 0.0 0.0 0.00 0.00 0.00 53 1007.3
20260508054013 41 26 0.0 0.0 0.00 0.00 0.00 53 1007.3
20260508053508 41 26 0.0 0.0 0.00 0.00 0.00 52 1007.3
20260508053011 41 26 0.0 0.0 0.00 0.00 0.00 52 1007.3
20260508052506 42 26 0.0 0.0 0.00 0.00 0.00 51 1007.3
20260508052005 42 26 0.0 0.0 0.00 0.00 0.00 50 1007.3
20260508051504 43 26 0.0 0.0 0.00 0.00 0.00 50 1007.3
20260508051005 43 26 0.0 0.0 0.00 0.00 0.00 49 1007.3
20260508050501 44 26 0.0 0.0 0.00 0.00 0.00 50 1007.3
20260508050104 44 26 0.0 0.0 0.00 0.00 0.00 50 1007.3
20260508045559 44 24 0.0 0.9 0.00 0.00 0.00 51 1007.3
20260508045100 45 23 0.0 0.9 0.00 0.00 0.00 49 1007.3
20260508044601 45 23 0.0 0.9 0.00 0.00 0.00 48 1007.3
20260508044059 46 23 0.0 0.0 0.00 0.00 0.00 47 1007.3
20260508043602 46 23 0.0 0.9 0.00 0.00 0.00 46 1007.3
20260508043059 47 23 0.0 0.9 0.00 0.00 0.00 45 1007.3
20260508042559 47 23 0.0 0.9 0.00 0.00 0.00 45 1007.4
20260508042058 47 23 0.0 1.7 0.00 0.00 0.00 44 1007.4
20260508041559 48 23 0.0 1.7 0.00 0.00 0.00 43 1007.5
20260508041058 48 23 0.9 1.7 0.00 0.00 0.00 43 1007.5
20260508040558 48 23 0.0 1.7 0.00 0.00 0.00 42 1007.5
20260508040101 49 23 0.0 1.7 0.00 0.00 0.00 42 1007.5
20260508035559 49 22 0.0 1.7 0.00 0.00 0.00 41 1007.5
20260508035058 49 22 0.9 1.7 0.00 0.00 0.00 42 1007.5
20260508034558 49 22 0.0 0.9 0.00 0.00 0.00 42 1007.5
20260508034057 48 22 0.0 0.9 0.00 0.00 0.00 43 1007.5
20260508033557 49 22 0.0 0.9 0.00 0.00 0.00 42 1007.5
20260508033100 49 22 0.0 0.9 0.00 0.00 0.00 41 1007.6
20260508032559 50 22 0.0 1.7 0.00 0.00 0.00 40 1007.5
20260508032059 50 22 0.0 1.7 0.00 0.00 0.00 39 1007.6
20260508031600 51 22 0.0 2.6 0.00 0.00 0.00 39 1007.6
20260508031056 51 22 0.9 2.6 0.00 0.00 0.00 38 1007.7
20260508030557 51 22 0.9 2.6 0.00 0.00 0.00 38 1007.6
20260508025559 52 20 0.0 2.6 0.00 0.00 0.00 38 1007.6
20260508025056 52 20 1.7 2.6 0.00 0.00 0.00 38 1007.6
20260508024618 53 19 0.9 2.6 0.00 0.00 0.00 38 1007.6
20260508024055 53 19 0.9 3.5 0.00 0.00 0.00 38 1007.6
20260508023555 53 18 1.7 3.5 0.00 0.00 0.00 38 1007.6
20260508023055 53 17 1.7 2.6 0.00 0.00 0.00 38 1007.6
20260508022556 53 17 0.9 2.6 0.00 0.00 0.00 37 1007.5
20260508022055 54 17 0.9 2.6 0.00 0.00 0.00 37 1007.4
20260508021604 54 17 0.0 2.6 0.00 0.00 0.00 36 1007.4
20260508021054 55 17 0.9 2.6 0.00 0.00 0.00 36 1007.3
20260508020554 55 17 0.9 2.6 0.00 0.00 0.00 36 1007.2
20260508020057 55 17 0.9 2.6 0.00 0.00 0.00 36 1007.2
20260508015554 56 17 0.9 3.5 0.00 0.00 0.00 35 1007.2
20260508015054 56 18 1.7 3.5 0.00 0.00 0.00 35 1007.1
20260508014556 57 16 1.7 3.5 0.00 0.00 0.00 33 1007.1
20260508014054 57 23 1.7 4.3 0.00 0.00 0.00 33 1007.0
20260508013552 58 12 1.7 7.0 0.00 0.00 0.00 32 1007.0
20260508013053 58 39 3.5 7.0 0.00 0.00 0.00 32 1007.0
20260508012553 58 5 2.6 7.0 0.00 0.00 0.00 32 1007.0
20260508012052 58 355 2.6 9.6 0.00 0.00 0.00 32 1006.9
20260508011601 58 343 4.3 9.6 0.00 0.00 0.00 31 1006.9
20260508011052 59 355 4.3 10.4 0.00 0.00 0.00 31 1006.8
20260508010552 59 328 2.6 12.2 0.00 0.00 0.00 30 1006.7
20260508010056 60 350 5.2 11.3 0.00 0.00 0.00 29 1006.7
20260508005555 60 329 7.8 11.3 0.00 0.00 0.00 29 1006.6
20260508005051 60 302 4.3 10.4 0.00 0.00 0.00 28 1006.6
20260508004559 60 327 4.3 10.4 0.00 0.00 0.00 29 1006.6
20260508004051 60 305 1.7 10.4 0.00 0.00 0.00 28 1006.6
20260508003551 61 298 3.5 9.6 0.00 0.00 0.00 28 1006.6
20260508003051 61 308 5.2 12.2 0.00 0.00 0.00 27 1006.6
20260508002551 61 303 4.3 12.2 0.00 0.00 0.00 28 1006.5
20260508002051 61 315 6.1 10.4 0.00 0.00 0.00 28 1006.6
20260508001551 61 316 6.1 10.4 0.00 0.00 0.00 28 1006.6
20260508001050 61 259 4.3 10.4 0.00 0.00 0.00 28 1006.6
20260508000550 61 316 5.2 11.3 0.00 0.00 0.00 28 1006.6
20260508000052 62 289 5.2 13.9 0.00 0.00 0.00 28 1006.7
20260507235550 62 287 6.1 18.2 0.00 0.00 0.00 28 1006.6
20260507235049 62 360 7.8 18.2 0.00 0.00 0.00 28 1006.6
20260507234549 62 258 6.1 13.0 0.00 0.00 0.00 28 1006.7
20260507234048 62 269 4.3 13.0 0.00 0.00 0.00 28 1006.6
20260507233548 61 346 2.6 13.0 0.00 0.00 0.00 28 1006.8
20260507233048 62 286 4.3 13.0 0.00 0.00 0.00 28 1006.8
20260507232547 61 293 4.3 13.0 0.00 0.00 0.00 29 1006.8
20260507232048 61 286 4.3 13.0 0.00 0.00 0.00 28 1006.9
20260507231546 61 327 3.5 15.6 0.00 0.00 0.00 28 1006.8
20260507231046 61 302 7.8 15.6 0.00 0.00 0.00 28 1006.9
20260507230548 61 332 7.0 15.6 0.00 0.00 0.00 28 1006.9
20260507225546 62 319 7.0 11.3 0.00 0.00 0.00 28 1007.0
20260507225044 61 306 3.5 13.9 0.00 0.00 0.00 29 1007.0
20260507224547 61 263 4.3 13.9 0.00 0.00 0.00 28 1007.2
20260507224042 62 273 5.2 15.6 0.00 0.00 0.00 29 1007.1
20260507223542 61 274 7.8 15.6 0.00 0.00 0.00 28 1007.0
20260507223042 61 329 9.6 14.8 0.00 0.00 0.00 28 1007.1
20260507222542 61 298 2.6 12.2 0.00 0.00 0.00 28 1007.2
20260507222040 61 287 6.1 10.4 0.00 0.00 0.00 29 1007.3
20260507221543 61 263 5.2 11.3 0.00 0.00 0.00 28 1007.3
20260507221039 60 300 4.3 11.3 0.00 0.00 0.00 29 1007.3
20260507220542 61 263 4.3 12.2 0.00 0.00 0.00 29 1007.4
20260507220041 61 270 6.1 13.9 0.00 0.00 0.00 29 1007.4
20260507215538 61 309 6.1 20.0 0.00 0.00 0.00 28 1007.5
20260507215037 61 266 7.8 20.0 0.00 0.00 0.00 29 1007.5
20260507214538 61 269 6.1 18.2 0.00 0.00 0.00 29 1007.6
20260507214036 60 315 5.2 12.2 0.00 0.00 0.00 29 1007.6
20260507213536 61 267 6.1 13.9 0.00 0.00 0.00 29 1007.9
20260507213034 61 323 7.0 13.9 0.00 0.00 0.00 29 1008.0
20260507212534 60 294 5.2 14.8 0.00 0.00 0.00 30 1007.9
20260507212033 60 336 7.8 14.8 0.00 0.00 0.00 30 1008.0
20260507211533 59 321 4.3 13.0 0.00 0.00 0.00 31 1008.1
20260507211033 60 279 5.2 13.9 0.00 0.00 0.00 29 1008.1
20260507210533 60 280 7.8 13.9 0.00 0.00 0.00 29 1008.1
20260507210035 60 283 5.2 16.5 0.00 0.00 0.00 30 1008.2
20260507205531 60 269 6.1 16.5 0.00 0.00 0.00 29 1008.2
20260507205031 60 323 8.7 16.5 0.00 0.00 0.00 31 1008.3
20260507204530 60 313 5.2 14.8 0.00 0.00 0.00 29 1008.4
20260507204029 60 340 5.2 14.8 0.00 0.00 0.00 29 1008.4
20260507203530 60 219 6.1 12.2 0.00 0.00 0.00 29 1008.4
20260507203040 60 309 5.2 17.4 0.00 0.00 0.00 29 1008.5
20260507202531 60 360 5.2 17.4 0.00 0.00 0.00 29 1008.6
20260507202026 60 319 10.4 17.4 0.00 0.00 0.00 29 1008.6
20260507201526 59 339 6.1 15.6 0.00 0.00 0.00 29 1008.6
20260507201025 60 136 5.2 15.6 0.00 0.00 0.00 29 1008.9
20260507200526 60 336 5.2 16.5 0.00 0.00 0.00 31 1008.8
20260507200023 59 337 9.6 16.5 0.00 0.00 0.00 30 1009.0
20260507195525 59 300 6.1 13.9 0.00 0.00 0.00 30 1009.1
20260507195022 60 287 6.1 12.2 0.00 0.00 0.00 32 1009.0
20260507194527 59 261 3.5 10.4 0.00 0.00 0.00 29 1009.0
20260507194024 59 319 6.1 11.3 0.00 0.00 0.00 32 1009.1
20260507193524 58 265 6.1 13.0 0.00 0.00 0.00 33 1009.1
20260507193021 58 256 6.1 16.5 0.00 0.00 0.00 30 1009.2
20260507192519 59 291 11.3 16.5 0.00 0.00 0.00 30 1009.2
20260507192018 58 243 4.3 13.0 0.00 0.00 0.00 31 1009.1
20260507191520 58 347 4.3 13.0 0.00 0.00 0.00 30 1009.2
20260507191017 58 273 6.1 13.0 0.00 0.00 0.00 31 1009.3
20260507190517 58 283 2.6 10.4 0.00 0.00 0.00 30 1009.2
20260507190019 58 281 4.3 13.0 0.00 0.00 0.00 33 1009.2
20260507185515 57 344 3.5 15.6 0.00 0.00 0.00 31 1009.4
20260507185016 57 273 7.0 15.6 0.00 0.00 0.00 31 1009.3
20260507184521 56 269 2.6 11.3 0.00 0.00 0.00 32 1009.1
20260507184014 57 296 3.5 19.1 0.00 0.00 0.00 33 1009.3
20260507183513 57 254 9.6 19.1 0.00 0.00 0.00 32 1009.4
20260507183014 57 254 11.3 19.1 0.00 0.00 0.00 31 1009.5
20260507182513 57 279 7.8 16.5 0.00 0.00 0.00 32 1009.4
20260507182013 57 281 2.6 13.0 0.00 0.00 0.00 32 1009.5
20260507181511 57 311 5.2 13.0 0.00 0.00 0.00 33 1009.6
20260507181013 56 236 4.3 14.8 0.00 0.00 0.00 34 1009.7
20260507180512 56 284 7.0 14.8 0.00 0.00 0.00 33 1009.9
20260507180017 56 330 5.2 13.0 0.00 0.00 0.00 35 1009.9
20260507175511 56 296 6.1 13.9 0.00 0.00 0.00 34 1009.9
20260507175008 56 234 6.1 13.9 0.00 0.00 0.00 35 1009.8
20260507174508 56 250 6.1 15.6 0.00 0.00 0.00 35 1009.9
20260507174010 55 269 5.2 15.6 0.00 0.00 0.00 36 1010.0
20260507173506 55 286 4.3 11.3 0.00 0.00 0.00 35 1010.2
20260507173011 56 308 1.7 14.8 0.00 0.00 0.00 36 1010.2
20260507172505 56 271 7.0 14.8 0.00 0.00 0.00 35 1010.3
20260507172003 56 329 5.2 13.0 0.00 0.00 0.00 37 1010.3
20260507171503 55 281 4.3 13.9 0.00 0.00 0.00 37 1010.4
20260507171002 55 270 6.1 12.2 0.00 0.00 0.00 37 1010.6
20260507170502 55 283 7.0 14.8 0.00 0.00 0.00 37 1010.5
20260507170105 55 252 7.8 14.8 0.00 0.00 0.00 36 1010.6
20260507170002 55 267 5.2 13.9 0.00 0.00 0.00 36 1010.6
20260507165559 55 333 6.1 13.9 0.00 0.00 0.00 37 1010.6
20260507165101 54 288 4.3 13.0 0.00 0.00 0.00 37 1010.7
20260507164559 55 269 5.2 12.2 0.00 0.00 0.00 38 1010.7
20260507164057 54 282 4.3 12.2 0.00 0.00 0.00 37 1010.7
20260507163557 53 269 3.5 12.2 0.00 0.00 0.00 36 1010.8
20260507163056 55 268 4.3 13.0 0.00 0.00 0.00 38 1010.9
20260507162557 55 88 3.5 13.0 0.00 0.00 0.00 38 1010.7
20260507162056 54 269 5.2 13.0 0.00 0.00 0.00 40 1010.9
20260507161602 53 263 6.1 13.0 0.00 0.00 0.00 41 1010.9
20260507161053 53 281 5.2 14.8 0.00 0.00 0.00 41 1011.0
20260507160553 54 282 6.1 10.4 0.00 0.00 0.00 42 1011.1
20260507160059 53 282 5.2 10.4 0.00 0.00 0.00 43 1011.1
20260507155549 53 279 4.3 7.8 0.00 0.00 0.00 45 1011.1
20260507155048 53 272 3.5 7.8 0.00 0.00 0.00 46 1011.2
20260507154547 52 281 2.6 6.1 0.00 0.00 0.00 48 1011.1
20260507154044 52 198 1.7 12.2 0.00 0.00 0.00 47 1011.2